Time[GMT],air_temperature[C](-3m),wind_speed[m/s](-4m),wind_gust[m/s](-4m),wind_direction[degrees](-4m),visibility[m](-3m),barometric_pressure[millibars](-3m)
2005-01-05 21:00,-0.2,4.8,6.3, 16,2913,
2005-01-05 22:00,0.1,4.3,6.0,  6,2954,
2005-01-05 23:00,0.0,4.1,5.4,335,2953,
2005-01-06 00:00,-0.2,5.2,6.5,326,2939,1021.68
2005-01-06 01:00,-0.4,5.8,7.2,322,2956,1022.16
2005-01-06 02:00,-0.3,5.8,7.3,332,2951,1022.40
2005-01-06 03:00,-0.3,5.5,7.0,329,2957,1022.70
2005-01-06 04:00,-0.3,6.4,8.3,347,2954,1021.62
2005-01-06 05:00,-0.1,5.7,7.8,330,2951,1021.14
2005-01-06 06:00,0.7,3.9,5.3, 69,2960,1021.02
2005-01-06 07:00,0.0,8.1,9.4, 57,2952,1020.96
2005-01-06 08:00,-1.6,6.9,9.4, 52,2319,1021.20
2005-01-06 09:00,-2.0,6.6,7.8, 51,2962,1020.90
2005-01-06 10:00,-1.8,6.8,7.8, 55,2960,1021.08
2005-01-06 11:00,-1.5,7.3,8.5, 62,2962,1021.02
2005-01-06 12:00,-1.4,6.6,8.0, 81,2962,1020.78
2005-01-06 13:00,-0.8,6.5,8.4, 97,2961,1020.18
2005-01-06 14:00,-0.3,6.3,7.8, 93,2961,1020.18
2005-01-06 15:00,0.6,8.1,9.5, 92,1121,1019.40
2005-01-06 16:00,0.4,7.3,9.0,105,1148,1018.68
2005-01-06 17:00,0.8,9.0,10.4, 95,1350,1017.00
2005-01-06 18:00,1.3,9.2,11.1,100,1707,1015.26
2005-01-06 19:00,1.4,9.4,11.0, 90,1172,1014.66
2005-01-06 20:00,2.0,9.8,11.7, 93,2462,1012.86
2005-01-06 21:00,2.4,9.7,12.0, 90,1225,1011.36
2005-01-06 22:00,3.1,10.8,12.4, 98,2228,1009.92
2005-01-06 23:00,3.7,8.0,9.6,102,2056,1010.34
2005-01-07 00:00,4.2,6.6,8.4, 97,2610,1009.44
2005-01-07 01:00,4.5,3.0,4.9, 83,2930,1007.28
2005-01-07 02:00,4.3,4.4,5.1,  6,2199,1007.22
2005-01-07 03:00,4.3,6.1,7.3,344,2224,1007.22
2005-01-07 04:00,0.4,7.8,9.2,347,1563,1006.62
2005-01-07 05:00,-0.2,5.2,7.6,339,2033,1006.62
2005-01-07 06:00,-0.5,2.8,4.0,334,2637,1006.86
2005-01-07 07:00,-0.5,3.6,5.3,294,2369,1006.68
2005-01-07 08:00,0.7,2.8,3.9,242,2581,1008.90
2005-01-07 09:00,1.9,5.5,6.8,253,2638,1008.90
2005-01-07 10:00,2.7,7.2,8.8,253,2843,1009.14
2005-01-07 11:00,2.4,8.4,11.0,266,2883,1010.52
2005-01-07 12:00,3.1,11.3,13.7,268,2937,1011.66
2005-01-07 13:00,2.7,11.4,14.0,278,2920,1013.04
2005-01-07 14:00,2.3,13.6,16.6,266,2889,1014.48
2005-01-07 15:00,2.2,10.5,12.6,283,2940,1016.70
2005-01-07 16:00,2.4,10.1,11.8,291,2906,1017.36
2005-01-07 17:00,3.0,8.7,10.5,281,2542,1017.66
2005-01-07 18:00,3.6,10.9,13.6,294,2953,1018.08
2005-01-07 19:00,3.1,10.9,13.8,301,2948,1019.16
2005-01-07 20:00,2.9,9.1,11.1,311,2880,1020.66
2005-01-07 21:00,2.5,8.2,10.0,323,2957,1022.04
2005-01-07 22:00,2.2,8.2,10.7,318,2962,1023.30
2005-01-07 23:00,1.9,8.0,10.3,299,2962,1024.80
2005-01-08 00:00,1.7,7.2,8.7,319,2960,1025.22
2005-01-08 01:00,1.8,6.4,8.3,311,2961,1025.52
2005-01-08 02:00,1.7,6.4,8.6,310,2960,1025.70
2005-01-08 03:00,1.4,6.2,7.5,323,2959,1025.82
2005-01-08 04:00,1.4,4.9,6.1,300,2960,1026.00
2005-01-08 05:00,1.2,5.2,6.4,292,2959,1026.36
2005-01-08 06:00,1.0,5.0,6.0,292,2962,1026.30
2005-01-08 07:00,1.2,4.5,5.6,274,2960,1026.60
2005-01-08 08:00,1.2,3.9,4.6,288,2961,1026.18
2005-01-08 09:00,1.1,3.1,4.1,274,2960,1025.94
2005-01-08 10:00,1.2,1.8,2.8,250,2961,1025.58
2005-01-08 11:00,2.0,2.8,4.2,195,2961,1025.10
2005-01-08 12:00,2.3,3.2,4.4,191,2959,1025.16
2005-01-08 13:00,2.6,4.4,6.1,169,2959,1024.68
2005-01-08 14:00,2.9,5.1,6.4,160,2956,1024.02
2005-01-08 15:00,2.1,6.3,7.8,176,2953,1023.42
2005-01-08 16:00,2.2,3.9,6.0,175,2683,1022.46
2005-01-08 17:00,2.2,4.0,5.1,159,2026,1021.32
2005-01-08 18:00,1.2,3.2,3.8,167,1717,1020.54
2005-01-08 19:00,1.0,3.4,4.0,139,2458,1020.06
2005-01-08 20:00,1.2,4.9,5.8, 61,2474,1019.28
2005-01-08 21:00,1.5,5.1,5.8, 25,1711,1019.82
2005-01-08 22:00,1.7,7.6,8.8, 34,2051,1017.78
2005-01-08 23:00,1.9,8.9,10.7, 29,2145,1017.72
2005-01-09 00:00,1.5,8.5,9.6, 15,1365,
2005-01-09 01:00,1.1,10.9,12.7,358,2843,
2005-01-09 02:00,0.8,11.0,13.3,359,2074,
2005-01-09 03:00,0.4,11.2,12.5,356,2534,
2005-01-09 04:00,0.4,9.1,11.7,341,2923,1020.54
2005-01-09 05:00,0.8,10.6,13.6,357,2937,1021.26
2005-01-09 06:00,1.1,10.7,13.5,360,2907,1022.58
2005-01-09 07:00,1.3,10.6,12.5, 14,2939,1023.42
2005-01-09 08:00,1.4,10.6,12.6, 16,2944,1023.78
2005-01-09 09:00,1.5,9.6,12.3, 17,2933,1024.68
2005-01-09 10:00,1.1,9.2,11.3, 12,2944,1025.70
2005-01-09 11:00,1.0,7.1,8.8,  7,2949,1027.02
2005-01-09 12:00,1.1,5.5,7.6,  8,2949,1028.34
2005-01-09 13:00,-0.5,6.5,8.7,328,2890,1028.82
2005-01-09 14:00,1.3,4.5,6.8, 47,2936,1029.18
2005-01-09 15:00,1.4,3.7,6.2, 38,2941,1029.78
2005-01-09 16:00,1.5,5.1,7.1, 38,2939,1029.24
2005-01-09 17:00,1.5,4.0,6.6, 36,2930,1028.46
2005-01-09 18:00,1.4,3.6,5.4, 54,2945,1028.16
2005-01-09 19:00,1.5,3.2,4.4, 74,2943,1028.34
2005-01-09 20:00,1.4,4.0,5.1, 70,2953,1028.10
2005-01-09 21:00,1.2,2.6,3.9, 69,2950,1027.92
2005-01-09 22:00,1.2,2.0,3.6,111,2957,1027.92
2005-01-09 23:00,1.3,2.8,4.1,130,2958,1028.04
2005-01-10 00:00,1.2,3.8,4.9,115,2852,1027.38
2005-01-10 01:00,1.4,3.9,5.3,114,2953,1026.84
2005-01-10 02:00,1.6,4.3,5.5,115,2948,1026.42
2005-01-10 03:00,1.9,4.0,6.2,201,2921,1025.88
2005-01-10 04:00,1.8,2.9,4.3,212,2862,1024.86
2005-01-10 05:00,1.8,2.8,3.9,187,2776,1023.90
2005-01-10 06:00,1.9,3.8,4.9,215,2826,1023.18
2005-01-10 07:00,1.4,3.8,4.7,226,1975,1022.94
2005-01-10 08:00,1.4,5.0,5.8,218,2582,1021.62
2005-01-10 09:00,1.9,4.9,5.8,192,2912,1020.24
2005-01-10 10:00,2.2,7.1,8.4,197,2843,1019.10
2005-01-10 11:00,1.7,7.6,8.7,206,2764,1017.90
2005-01-10 12:00,2.1,7.2,8.8,204,2801,1016.88
2005-01-10 13:00,2.3,10.1,12.3,210,2767,1016.28
2005-01-10 14:00,2.8,10.7,12.7,205,2658,1015.98
2005-01-10 15:00,3.5,11.4,13.4,205,2598,1014.96
2005-01-10 16:00,3.8,10.9,12.9,219,2599,1013.34
2005-01-10 17:00,4.2,11.1,13.8,232,2502,1012.02
2005-01-10 18:00,4.3,10.8,13.5,232,2422,1010.88
2005-01-10 19:00,4.3,10.7,12.3,247,2330,1011.00
2005-01-10 20:00,4.6,8.4,10.5,238,2495,1011.42
2005-01-10 21:00,4.8,8.9,10.4,248,2584,1011.72
2005-01-10 22:00,4.6,8.8,10.5,246,2615,1011.96
2005-01-10 23:00,4.5,8.9,10.4,252,2702,1012.68
2005-01-11 00:00,4.6,8.4,10.4,264,2897,1013.34
2005-01-11 01:00,4.5,8.7,10.9,274,2935,1014.18
2005-01-11 02:00,4.2,9.1,10.9,273,2940,1014.84
2005-01-11 03:00,3.8,9.1,11.1,277,2956,1015.50
2005-01-11 04:00,3.5,7.4,8.8,279,2960,1016.04
2005-01-11 05:00,3.2,7.3,10.5,274,2960,1016.04
2005-01-11 06:00,3.2,8.3,10.0,257,2957,1016.70
2005-01-11 07:00,3.1,7.7,9.4,275,2952,1017.90
2005-01-11 08:00,2.6,9.7,11.3,289,2957,1018.74
2005-01-11 09:00,2.1,9.3,11.5,295,2959,1019.16
2005-01-11 10:00,1.5,7.1,8.7,302,2958,1020.36
2005-01-11 11:00,0.8,7.0,8.4,309,2960,1021.62
2005-01-11 12:00,-0.0,9.6,11.1,323,2957,1022.76
2005-01-11 13:00,-0.4,8.2,10.4,328,2951,1024.26
2005-01-11 14:00,-1.0,8.1,9.5,319,2828,1025.52
2005-01-11 15:00,-1.2,6.3,8.0,314,2890,1026.18
2005-01-11 16:00,-1.3,4.7,6.0,320,2847,1025.52
2005-01-11 17:00,-1.0,5.0,7.1,310,2930,1025.10
2005-01-11 18:00,-0.9,4.6,5.7,309,2955,1025.10
2005-01-11 19:00,-0.5,3.4,4.6,298,2956,1025.04
2005-01-11 20:00,-0.3,4.0,5.2,314,2954,1025.70
2005-01-11 21:00,-0.1,3.0,4.2,299,2955,1026.54
2005-01-11 22:00,-0.0,3.0,3.9,338,2960,1027.14
2005-01-11 23:00,0.1,1.8,2.7,344,2956,1027.68
2005-01-12 00:00,0.3,1.9,2.9,  6,2961,1028.10
2005-01-12 01:00,0.5,1.0,1.6,  2,2956,1028.22
2005-01-12 02:00,0.8,1.2,2.4,121,2959,1028.22
2005-01-12 03:00,0.6,2.4,4.2, 87,2956,1028.40
2005-01-12 04:00,0.3,1.7,3.6, 79,2960,1028.10
2005-01-12 05:00,0.7,4.4,6.0, 76,2961,1027.68
2005-01-12 06:00,0.8,3.8,5.6, 92,2959,1027.92
2005-01-12 07:00,1.3,4.3,5.4, 92,2959,1028.46
2005-01-12 08:00,1.6,6.1,8.0,114,2956,1027.86
2005-01-12 09:00,1.2,7.4,8.9,109,1437,1027.56
2005-01-12 10:00,1.0,8.4,9.6,109,2026,1028.10
2005-01-12 11:00,1.2,9.1,10.2, 95,2681,1027.98
2005-01-12 12:00,1.6,9.1,10.8, 90,2885,1028.10
2005-01-12 13:00,1.5,9.2,11.0, 92,2274,1028.16
2005-01-12 14:00,1.9,9.3,11.2, 94,2418,1028.22
2005-01-12 15:00,2.2,10.1,12.0, 87,1661,1027.98
2005-01-12 16:00,2.5,10.0,12.3, 93,1258,1026.78
2005-01-12 17:00,2.8,9.2,11.1, 88,1773,1026.36
2005-01-12 18:00,3.0,9.1,10.9, 82,1447,1025.58
2005-01-12 19:00,3.0,9.8,11.8, 85,1865,1024.62
2005-01-12 20:00,3.3,9.9,11.9, 80,1994,1023.72
2005-01-12 21:00,3.6,8.7,10.9, 82,2056,1024.50
2005-01-12 22:00,3.6,8.5,9.9, 69,1265,1024.08
2005-01-12 23:00,3.9,7.2,8.9, 76,2413,1024.56
2005-01-13 00:00,4.3,6.7,8.7, 74,1718,1024.74
2005-01-13 01:00,4.4,6.2,7.3, 62,1325,1024.56
2005-01-13 02:00,4.5,5.3,6.3, 45,1593,1023.90
2005-01-13 03:00,4.4,5.6,6.7, 28,1597,1023.48
2005-01-13 04:00,4.3,6.4,7.4, 12,2081,1023.12
2005-01-13 05:00,1.4,10.6,12.6,  2, 878,
2005-01-13 06:00,1.0,9.5,10.9,  2,1020,
2005-01-13 07:00,0.7,8.8,10.4,  3, 767,
2005-01-13 08:00,0.9,7.6,9.3,  4,1108,
2005-01-13 09:00,0.9,6.6,7.7,  6,1172,
2005-01-13 10:00,0.9,5.5,6.7,358, 977,
2005-01-13 11:00,1.1,5.8,6.9, 18, 825,
2005-01-13 12:00,1.4,5.1,6.1, 28,1561,
2005-01-13 13:00,1.8,2.5,3.7, 49,1985,
2005-01-13 14:00,2.5,1.9,2.7, 46,2309,
2005-01-13 15:00,3.3,2.1,2.9,133,1084,
2005-01-13 16:00,3.7,2.0,2.6,150, 240,1021.92
2005-01-13 17:00,4.4,2.7,3.4,166, 222,1022.34
2005-01-13 18:00,4.7,4.2,4.9,170, 196,1020.54
2005-01-13 19:00,4.8,4.1,4.7,180, 124,1020.00
2005-01-13 20:00,5.0,2.0,2.9,213, 115,1019.70
2005-01-13 21:00,4.6,0.6,1.6,135, 147,1018.26
2005-01-13 22:00,6.8,2.6,3.3,188,  97,1018.98
2005-01-13 23:00,7.1,4.0,4.7,191, 187,1018.20
2005-01-14 00:00,7.6,6.2,6.9,182, 630,1018.26
2005-01-14 01:00,8.3,7.3,8.4,182, 573,1017.00
2005-01-14 02:00,8.4,8.0,9.2,176, 857,1015.86
2005-01-14 03:00,8.7,8.3,9.4,180,2025,1015.62
2005-01-14 04:00,8.4,7.7,8.6,176,2090,1014.84
2005-01-14 05:00,7.8,5.4,6.9,185,1875,1013.22
2005-01-14 06:00,7.1,5.1,6.3,173,1495,1012.44
2005-01-14 07:00,10.9,10.3,12.0,182,2340,1011.48
2005-01-14 08:00,9.9,8.6,10.7,186,1960,1010.76
2005-01-14 09:00,10.7,10.8,12.7,187,2113,1009.98
2005-01-14 10:00,10.7,10.5,12.5,191,2218,1008.42
2005-01-14 11:00,10.5,10.1,11.9,200,2270,1008.12
2005-01-14 12:00,10.7,9.7,11.6,203,2343,1008.18
2005-01-14 13:00,11.3,11.4,13.4,196,2238,1007.76
2005-01-14 14:00,12.4,12.7,16.6,206,2403,
2005-01-14 15:00,12.4,11.7,15.6,211,2357,
2005-01-14 16:00,7.1,8.9,10.9,312,2781,
2005-01-14 17:00,5.4,8.9,12.5,307,1388,
2005-01-14 18:00,4.6,9.8,12.5,317,1734,
2005-01-14 19:00,3.9,11.9,14.3,320,1438,
2005-01-14 20:00,2.4,10.3,12.2,320,1695,1011.48
2005-01-14 21:00,3.0,5.1,8.4,332,2959,1011.18
2005-01-14 22:00,2.9,4.7,5.9,288,2960,1012.86
2005-01-14 23:00,3.3,4.8,6.3,272,2960,1014.24
2005-01-15 00:00,3.6,5.3,6.0,268,2959,1015.44
2005-01-15 01:00,3.8,6.7,8.0,289,2956,1016.16
2005-01-15 02:00,3.3,7.7,9.0,293,2953,1022.64
2005-01-15 03:00,2.5,8.9,11.2,299,2956,1026.06
2005-01-15 04:00,1.8,9.6,11.3,310,2956,1026.72
2005-01-15 05:00,1.0,9.7,11.4,310,2957,1027.62
2005-01-15 06:00,0.4,9.2,11.2,320,2958,1028.52
2005-01-15 07:00,-0.1,8.7,11.1,312,2958,1030.50
2005-01-15 08:00,-0.6,7.5,9.4,336,2962,1031.94
2005-01-15 09:00,-1.1,8.3,10.4,346,2960,1032.48
2005-01-15 10:00,-1.6,7.6,10.1,338,2958,1033.92
2005-01-15 11:00,-1.9,6.9,8.8,337,2957,1035.06
2005-01-15 12:00,-2.0,5.3,7.1,332,2958,1035.96
2005-01-15 13:00,-2.3,5.6,7.6,342,2953,1036.68
2005-01-15 14:00,-2.1,4.4,6.5,359,2953,1037.76
2005-01-15 15:00,-2.2,4.5,6.1,323,2953,1038.84
2005-01-15 16:00,-2.0,3.3,4.5,330,2702,1038.66
2005-01-15 17:00,-1.8,2.2,3.9,301,2937,1038.36
2005-01-15 18:00,-1.7,3.4,4.7,262,2921,1037.76
2005-01-15 19:00,-1.5,2.4,4.2,250,2920,1037.16
2005-01-15 20:00,-1.2,2.1,3.7,240,2560,1037.22
2005-01-15 21:00,-1.4,1.4,2.4,251,2945,1037.46
2005-01-15 22:00,-1.3,2.6,3.9,273,2959,1037.76
2005-01-15 23:00,-1.4,1.8,3.1,327,2959,1038.30
2005-01-16 00:00,-1.5,0.7,2.1,261,2959,1038.72
2005-01-16 01:00,-1.4,0.8,1.8,276,2961,1038.96
2005-01-16 02:00,-1.3,0.8,1.6,260,2957,1039.20
2005-01-16 03:00,-1.0,1.4,2.4,222,2958,1039.14
2005-01-16 04:00,-1.3,5.0,6.3,305,2957,1038.72
2005-01-16 05:00,-2.2,6.9,8.3,318,2957,1037.94
2005-01-16 06:00,-2.4,6.5,7.5,334,2954,1037.58
2005-01-16 07:00,-2.4,6.5,7.9,339,2958,1037.70
2005-01-16 08:00,-2.5,6.2,8.0,332,2957,1037.64
2005-01-16 09:00,-2.4,6.9,7.9,348,2960,1037.82
2005-01-16 10:00,-2.2,7.7,9.8,348,2960,1036.68
2005-01-16 11:00,-2.0,7.5,8.9,  5,2959,1036.62
2005-01-16 12:00,-2.3,7.3,8.9,  6,2957,1036.86
2005-01-16 13:00,-2.0,6.1,7.4, 16,2951,1036.92
2005-01-16 14:00,-1.5,5.1,6.6, 42,2949,1036.92
2005-01-16 15:00,-1.0,6.2,7.4, 36,2947,1036.14
2005-01-16 16:00,-0.4,6.1,7.4, 41,2922,1034.04
2005-01-16 17:00,0.0,6.2,7.8, 36,2943,1032.30
2005-01-16 18:00,0.7,6.2,7.6, 38,2958,1031.52
2005-01-16 19:00,0.5,8.4,10.1, 35,1981,1029.06
2005-01-16 20:00,1.0,11.2,13.0, 30,2863,1027.14
2005-01-16 21:00,0.1,11.4,13.7, 25,1075,1026.96
2005-01-16 22:00,0.9,10.7,12.9, 30,1977,1025.64
2005-01-16 23:00,1.6,10.5,13.2, 61,2778,1024.62
2005-01-17 00:00,1.3,11.4,13.3, 54,2750,1024.08
2005-01-17 01:00,0.2,12.0,14.9, 45,1610,1022.94
2005-01-17 02:00,-0.3,12.3,14.8, 39,2250,1021.62
2005-01-17 03:00,-0.3,12.2,14.9, 42,2962,1020.66
2005-01-17 04:00,-1.3,14.3,16.8, 20,2962,1019.70
2005-01-17 05:00,-1.6,14.4,17.1, 17,2962,1018.56
2005-01-17 06:00,-1.6,14.3,17.9, 20,2962,1017.66
2005-01-17 07:00,-1.4,14.7,18.1, 16,2962,
2005-01-17 08:00,-2.3,15.0,19.0,  2,2962,
2005-01-17 09:00,-2.6,14.2,17.2,  0,2962,
2005-01-17 10:00,-3.0,14.4,17.3,356,2962,
2005-01-17 11:00,-3.5,13.5,16.7,355,2962,
2005-01-17 12:00,-4.0,12.8,15.7,354,2962,
2005-01-17 13:00,-4.2,11.2,13.9,338,2962,
2005-01-17 14:00,-4.6,10.9,13.6,342,2962,
2005-01-17 15:00,-4.9,10.2,12.3,332,2963,
2005-01-17 16:00,-5.0,9.2,11.7,334,2963,
2005-01-17 17:00,-4.7,8.1,10.2,322,2963,
2005-01-17 18:00,-4.4,7.8,10.4,307,2963,
2005-01-17 19:00,-4.5,8.7,12.7,296,2963,
2005-01-17 20:00,-4.5,9.5,12.0,299,2963,
2005-01-17 21:00,-4.5,10.2,12.7,308,2962,
2005-01-17 22:00,-5.0,10.8,14.5,305,2963,
2005-01-17 23:00,-5.6,13.3,16.7,311,2963,
2005-01-18 00:00,-6.3,11.5,13.9,310,2963,
2005-01-18 01:00,-6.8,11.2,14.5,307,2963,
2005-01-18 02:00,-7.7,11.1,13.4,307,2963,
2005-01-18 03:00,-8.7,10.4,14.9,307,2963,
2005-01-18 04:00,-9.2,10.9,14.5,312,2963,
2005-01-18 05:00,-9.8,12.2,15.2,310,2963,
2005-01-18 06:00,-10.4,10.9,13.9,308,2963,
2005-01-18 07:00,-10.7,11.2,14.9,305,2963,
2005-01-18 08:00,-11.3,11.4,15.1,304,2963,
2005-01-18 09:00,-11.7,12.1,14.7,302,2962,
2005-01-18 10:00,-12.2,12.6,17.2,304,2963,
2005-01-18 11:00,-12.3,12.2,16.0,301,2963,
2005-01-18 12:00,-12.8,12.3,15.5,309,2963,
2005-01-18 13:00,-12.9,11.8,15.3,307,2963,
2005-01-18 14:00,-13.3,11.1,13.6,306,2963,
2005-01-18 15:00,-13.0,9.9,12.7,312,2963,
2005-01-18 16:00,-13.0,9.7,13.0,318,2963,
2005-01-18 17:00,-12.5,8.6,10.8,314,2963,
2005-01-18 18:00,-11.4,9.4,12.3,317,2963,
2005-01-18 19:00,-11.0,9.1,11.4,307,2963,
2005-01-18 20:00,-10.4,9.1,12.6,310,2963,
2005-01-18 21:00,-10.4,10.4,13.0,305,2963,
2005-01-18 22:00,-10.8,12.1,15.6,315,2963,
2005-01-18 23:00,-10.9,11.3,13.7,310,2962,
2005-01-19 00:00,-11.2,10.1,12.5,306,2963,
2005-01-19 01:00,-11.8,10.5,12.9,308,2963,
2005-01-19 02:00,-12.4,8.9,10.8,308,2963,
2005-01-19 03:00,-13.1,7.5,10.2,309,2963,
2005-01-19 04:00,-13.5,6.5,8.6,319,2963,
2005-01-19 05:00,-13.2,6.7,8.1,328,2963,
2005-01-19 06:00,-13.0,5.6,6.6,318,2963,
2005-01-19 07:00,-12.6,5.6,7.0,311,2963,
2005-01-19 08:00,-12.5,3.9,5.2,308,2963,
2005-01-19 09:00,-12.4,3.0,4.2,311,2963,
2005-01-19 10:00,-11.9,1.3,3.0,264,2963,
2005-01-19 11:00,-11.5,3.4,5.3,295,2963,
2005-01-19 12:00,-10.6,1.2,2.5,302,2963,
2005-01-19 13:00,-9.7,2.5,4.1,273,2963,
2005-01-19 14:00,-8.7,2.1,3.5,258,2962,
2005-01-19 15:00,-8.0,3.0,4.0,261,2963,
2005-01-19 16:00,-7.2,5.4,8.4,212,2963,
2005-01-19 17:00,-6.5,6.4,8.4,205,2962,
2005-01-19 18:00,-5.6,8.0,10.3,199,2963,
2005-01-19 19:00,-4.5,7.4,9.4,200,2962,
2005-01-19 20:00,-3.7,8.6,11.2,185,2962,
2005-01-19 21:00,-2.9,7.5,9.4,181,2963,1020.12
2005-01-19 22:00,-2.0,9.6,11.0,170,2963,1018.44
2005-01-19 23:00,-1.5,9.1,10.9,176,2578,1017.24
2005-01-20 00:00,-1.2,9.6,11.5,158,1096,1015.74
2005-01-20 01:00,-0.7,10.9,12.6,154, 693,1014.72
2005-01-20 02:00,0.3,11.3,13.2,160,1266,1012.26
2005-01-20 03:00,0.6,11.2,13.1,162, 563,1010.52
2005-01-20 04:00,-1.2,9.0,10.3,251,1071,1010.16
2005-01-20 05:00,-2.6,6.8,8.2,269,2696,1009.08
2005-01-20 06:00,-3.9,8.2,10.3,278,2531,1008.24
2005-01-20 07:00,-4.6,7.2,8.7,285,2928,1007.88
2005-01-20 08:00,-4.8,7.1,8.7,285,2941,1007.22
2005-01-20 09:00,-5.1,6.4,8.6,300,2962,1006.26
2005-01-20 10:00,-4.9,7.2,8.9,303,2963,1006.02
2005-01-20 11:00,-4.8,8.1,9.9,300,2963,1006.26
2005-01-20 12:00,-4.6,8.8,10.6,293,2962,1006.32
2005-01-20 13:00,-5.3,10.3,12.0,303,2962,1006.44
2005-01-20 14:00,-5.8,9.6,11.4,308,2963,1007.04
2005-01-20 15:00,-5.5,9.1,11.1,316,2963,1007.40
2005-01-20 16:00,-4.6,9.3,11.2,306,2963,1007.46
2005-01-20 17:00,-3.3,9.4,11.5,295,2930,1006.98
2005-01-20 18:00,-2.7,9.2,12.5,293,2962,1007.10
2005-01-20 19:00,-2.1,11.6,13.9,308,2924,1007.10
2005-01-20 20:00,-2.4,11.2,14.3,307,2939,1007.82
2005-01-20 21:00,-2.8,9.0,11.0,309,2824,1008.42
2005-01-20 22:00,-3.8,10.0,11.9,310,2960,1009.32
2005-01-20 23:00,-4.5,10.0,12.1,311,2959,1010.52
2005-01-21 00:00,-5.7,10.2,12.7,313,2959,1011.00
2005-01-21 01:00,-6.3,11.3,13.8,310,2962,1011.24
2005-01-21 02:00,-6.9,10.4,13.6,312,2960,1011.84
2005-01-21 03:00,-7.8,10.9,13.1,307,2962,1012.44
2005-01-21 04:00,-8.4,10.6,13.2,317,2960,1012.68
2005-01-21 05:00,-9.2,10.3,13.1,310,2960,1013.10
2005-01-21 06:00,-10.7,8.2,10.2,307,2934,1013.40
2005-01-21 07:00,-11.8,9.6,11.6,312,2493,1014.18
2005-01-21 08:00,-12.6,9.0,12.6,311,2030,1014.48
2005-01-21 09:00,-13.4,10.8,13.3,307, 909,1015.08
2005-01-21 10:00,-13.9,10.2,12.2,305, 505,1015.20
2005-01-21 11:00,-14.3,10.1,12.4,310, 401,1015.32
2005-01-21 12:00,-14.3,10.3,12.5,310, 273,1015.86
2005-01-21 13:00,-14.4,10.4,13.0,322, 255,1016.28
2005-01-21 14:00,-14.3,10.3,13.1,317, 152,1017.00
2005-01-21 15:00,-14.3,9.4,11.8,319, 616,1017.42
2005-01-21 16:00,-14.2,8.5,11.6,325,1481,1017.60
2005-01-21 17:00,-13.7,7.5,9.9,313,2452,1017.60
2005-01-21 18:00,-13.0,8.5,11.2,311,2819,1017.36
2005-01-21 19:00,-12.4,8.7,11.1,308,2944,1017.54
2005-01-21 20:00,-11.6,9.6,12.1,315,2944,1018.08
2005-01-21 21:00,-11.1,11.1,13.1,308,2752,1018.68
2005-01-21 22:00,-10.9,10.4,13.5,307,2947,1019.70
2005-01-21 23:00,-11.8,10.9,13.5,311,2931,1020.24
2005-01-22 00:00,-12.4,10.2,12.7,308,2749,1021.32
2005-01-22 01:00,-12.7,10.0,13.1,320,1951,1021.56
2005-01-22 02:00,-13.1,9.1,12.0,325,1256,1022.52
2005-01-22 03:00,-13.4,9.9,12.0,316, 539,1023.00
2005-01-22 04:00,-13.9,8.6,10.4,316, 497,1023.72
2005-01-22 05:00,-14.6,8.3,10.4,317, 380,1024.02
2005-01-22 06:00,-15.0,7.4,9.8,326, 422,1024.02
2005-01-22 07:00,-14.7,8.3,10.0,331, 215,1024.62
2005-01-22 08:00,-13.2,6.2,8.0,325, 338,1024.32
2005-01-22 09:00,-14.4,6.0,7.4,308, 237,1024.62
2005-01-22 10:00,-14.1,5.5,7.0,315, 164,1024.50
2005-01-22 11:00,-12.1,6.0,7.7,306, 199,1024.56
2005-01-22 12:00,-11.8,5.8,7.1,322, 167,1024.38
2005-01-22 13:00,-10.9,5.4,6.7,328, 258,1024.14
2005-01-22 14:00,-10.0,5.5,6.5,338, 514,1023.96
2005-01-22 15:00,-8.8,4.5,5.7,341,1335,1023.84
2005-01-22 16:00,-8.2,4.1,5.6, 34,2283,1023.06
2005-01-22 17:00,-7.9,4.5,6.4, 87,2331,1021.56
2005-01-22 18:00,-7.6,2.9,5.3,102,2160,1020.60
2005-01-22 19:00,-7.0,4.8,6.5,105,2936,1019.52
2005-01-22 20:00,-6.5,4.5,6.4,104,2811,1019.22
2005-01-22 21:00,-5.9,4.6,6.7,132,2749,1019.28
2005-01-22 22:00,-5.0,6.2,9.4,119,1113,1018.14
2005-01-22 23:00,-4.0,9.2,11.6,106,1280,1016.64
2005-01-23 00:00,-3.3,9.8,12.4,101,2130,1014.72
2005-01-23 01:00,-3.5,10.3,13.2, 88,2962,1013.22
2005-01-23 02:00,-2.9,10.9,14.1, 88,2959,1012.32
2005-01-23 03:00,-2.6,12.5,16.0, 78,2962,1010.16
2005-01-23 04:00,-2.6,13.7,16.5, 69,2524,1008.78
2005-01-23 05:00,-2.4,14.0,17.2, 69,2949,
2005-01-23 06:00,-2.3,15.1,18.2, 65,2675,
2005-01-23 07:00,-2.3,14.1,17.3, 65,2887,
2005-01-23 08:00,-2.5,15.6,19.9, 54,2962,
2005-01-23 09:00,-2.4,16.2,20.9, 47,2962,
2005-01-23 10:00,-2.9,18.6,22.3, 42,2962,
2005-01-23 11:00,-3.0,18.5,22.2, 27,2962,
2005-01-23 12:00,-2.7,18.9,23.9, 19,2962,
2005-01-23 13:00,-2.3,18.8,22.8, 21,2962,
2005-01-23 14:00,-3.1,18.6,22.1, 12,2962,
2005-01-23 15:00,-4.2,18.2,22.5, 14,2962,
2005-01-23 16:00,-5.2,18.1,22.5, 10,2962,
2005-01-23 17:00,-6.3,16.6,21.8,  4,2962,
2005-01-23 18:00,-6.1,16.1,19.3,358,2962,
2005-01-23 19:00,-6.1,15.0,18.6,356,2962,
2005-01-23 20:00,-5.9,12.5,19.2,357,2962,
2005-01-23 21:00,-5.7,12.7,17.7,355,2962,
2005-01-23 22:00,-5.7,13.6,18.9,  1,2962,
2005-01-23 23:00,-5.2,13.9,18.3,348,2962,
2005-01-24 00:00,-5.3,13.9,17.8,351,2962,
2005-01-24 01:00,-5.9,12.2,15.5,345,,
2005-01-24 02:00,-6.7,,,,,
2005-01-24 03:00,-7.7,,,,,
2005-01-24 04:00,-8.1,,,,,
2005-01-24 05:00,-8.4,,,,,
2005-01-24 06:00,-8.4,,,,,
2005-01-24 07:00,-10.1,,,,,
2005-01-24 08:00,-12.2,,,,,
2005-01-24 09:00,-3.2,10.8,12.9,311,,
2005-01-24 10:00,-9.2,11.2,13.8,310,,
2005-01-24 11:00,-13.0,11.0,14.0,311,,
2005-01-24 12:00,-12.9,11.1,14.3,316,,
2005-01-24 13:00,-12.2,10.6,12.2,309,,
2005-01-24 14:00,-11.5,9.0,12.4,316,,
2005-01-24 15:00,-11.2,7.8,9.5,314,,
2005-01-24 16:00,-10.3,8.5,10.7,304,,
2005-01-24 17:00,-9.1,8.0,11.3,286,,
2005-01-24 18:00,-7.8,8.8,11.1,288,,
2005-01-24 19:00,-6.8,8.4,11.2,286,,
2005-01-24 20:00,-6.0,7.7,9.1,262,,
2005-01-24 21:00,-5.4,8.1,10.5,273,,
2005-01-24 22:00,-5.4,8.7,10.5,254,,
2005-01-24 23:00,-5.5,9.1,11.6,265,,
2005-01-25 00:00,-5.6,9.4,11.1,258,,
2005-01-25 01:00,-5.6,9.2,10.8,265,,
2005-01-25 02:00,-5.7,10.4,12.2,263,,
2005-01-25 03:00,-5.7,10.3,12.1,260,,
2005-01-25 04:00,-5.8,9.7,12.0,268,,
2005-01-25 05:00,-6.0,10.0,12.7,270,,
2005-01-25 06:00,-5.9,9.5,11.4,281,,
2005-01-25 07:00,-5.9,9.5,12.1,277,,
2005-01-25 08:00,-5.8,10.0,12.1,278,,
2005-01-25 09:00,-5.7,11.0,12.9,285,,
2005-01-25 10:00,-5.6,12.0,14.0,294,,
2005-01-25 11:00,-5.5,11.9,14.5,290,,
2005-01-25 12:00,-5.7,10.1,11.8,298,,
2005-01-25 13:00,-5.9,10.9,15.8,305,,
2005-01-25 14:00,-6.1,11.9,14.9,318,,
2005-01-25 15:00,-6.5,10.9,13.0,317,,
2005-01-25 16:00,-6.9,9.7,11.8,310,,
2005-01-25 17:00,-7.2,8.3,10.4,314,,
2005-01-25 18:00,-7.0,8.0,10.7,312,,
2005-01-25 19:00,-6.4,7.8,10.4,307,,
2005-01-25 20:00,-5.9,8.6,11.7,308,,
2005-01-25 21:00,-5.6,8.2,11.0,308,,
2005-01-25 22:00,-5.8,7.5,10.0,324,,
2005-01-25 23:00,-6.2,8.4,10.1,316,,
2005-01-26 00:00,-6.3,8.0,10.1,324,,
2005-01-26 01:00,-6.5,6.8,8.6,329,,
2005-01-26 02:00,-6.6,6.2,7.6,326,,
2005-01-26 03:00,-6.7,5.7,7.3,349,,
2005-01-26 04:00,-6.9,3.5,4.6,330,,
2005-01-26 05:00,-7.2,1.9,2.5,330,,
2005-01-26 06:00,-7.3,0.9,2.7,125,,
2005-01-26 07:00,-7.2,0.7,1.5, 39,,
2005-01-26 08:00,-6.9,0.8,1.6, 55,,
2005-01-26 09:00,-6.5,3.5,5.0,167,,
2005-01-26 10:00,-6.0,3.5,6.3,198,,
2005-01-26 11:00,-5.6,2.0,4.3,155,,
2005-01-26 12:00,-5.4,3.8,5.0,128,,
2005-01-26 13:00,-5.0,5.8,6.9,106,,
2005-01-26 14:00,-4.6,6.1,7.4, 98,,
2005-01-26 15:00,-4.1,6.0,7.2, 95,,
2005-01-26 16:00,-3.7,5.5,7.2, 84,,
2005-01-26 17:00,-3.4,6.1,7.3, 65,,
2005-01-26 18:00,-3.0,7.4,8.8, 46,,
2005-01-26 19:00,-2.7,8.0,9.5, 29,,
2005-01-26 20:00,-2.5,12.3,14.9, 13,,
2005-01-26 21:00,-2.4,13.6,15.8, 16,2960,
2005-01-26 22:00,-2.2,14.0,17.3,  8,2875,
2005-01-26 23:00,-2.2,14.5,17.3,  5,2847,
2005-01-27 00:00,-2.6,14.3,16.9,  8,2933,
2005-01-27 01:00,-3.0,14.0,16.7, 10,2939,
2005-01-27 02:00,-3.3,13.9,18.0, 20,2962,
2005-01-27 03:00,-3.8,14.8,17.6, 14,2962,
2005-01-27 04:00,-4.4,14.6,18.0, 14,2963,
2005-01-27 05:00,-4.6,14.0,18.2, 16,2963,
2005-01-27 06:00,-5.2,14.3,17.3, 13,2963,
2005-01-27 07:00,-5.7,13.5,16.9, 12,2963,
2005-01-27 08:00,-6.3,13.2,16.5, 15,2963,
2005-01-27 09:00,-7.1,13.1,15.7, 12,2963,
2005-01-27 10:00,-4.5,12.6,15.4, 15,2962,
2005-01-27 11:00,-4.5,12.8,15.1, 15,2963,
2005-01-27 12:00,-6.6,13.0,16.0,  7,2959,
2005-01-27 13:00,-8.7,12.4,14.8, 13,2951,
2005-01-27 14:00,-8.8,11.9,14.5, 16,2958,
2005-01-27 15:00,-8.9,12.4,15.2,  8,2807,
2005-01-27 16:00,-9.0,12.1,15.0,  7,2939,
2005-01-27 17:00,-9.9,10.5,12.5,  5,2947,